Volver al catálogo

THOR ABLESTAR DEB

ActivoLEO
NORAD 351·DEBRIS·🇺🇸 United States

Lanzado Jun 29, 1961 desde Cape Canaveral Space Force Station

Loading…

Próximos Pases (próximas 24 horas)

TLE

ActualizadoSource: Space-Track

Época: Sep 14, 2026, 12:57 UTC

1 00351U 61015DR  26257.54022261  .00007165  00000-0  78842-3 0  9997
2 00351  66.7398 190.0619 0029817 245.0032 114.7999 14.87832240391023

Sigue THOR ABLESTAR DEB en tiempo real con AllMySat

Download on the App Store